BEIDOU-2 G1

Last updated on Tue Jun 17 2025 00:02:45 GMT+0000 (Coordinated Universal Time)

1 36287U 10001A 25167.60278847 -.00000269 00000+0 00000+0 0 9997 2 36287 3.4383 60.7241 0002676 308.2429 253.6159 1.00271130 56500
UTC large
Height (km)
Speed (km/s)
/
Latitude / Longitude
Inclination (degrees)
Orbital Period (minutes)
Azimuth
Elevation
Range (km)
Doppler Factor

Next 0 passes for location: London (51.5072 / 0.1276)

Sorry there are no passes over London.